カタログに戻る

COSMOS 1818 COOLANT

LostLEO
NORAD 50776·DEBRIS·🇷🇺 Russia

打ち上げ Feb 1, 1987 から Baikonur Cosmodrome

Loading…

次のパス (今後24時間)

TLE

古いSource: Space-Track

元期: Aug 25, 2022, 03:49 UTC

1 50776U 87011AR  22237.15928685  .00000154  00000-0  89164-4 0  9994
2 50776  65.0047 134.3594 0016484 258.8623 101.0610 14.34977400458820

AllMySatでCOSMOS 1818 COOLANTをリアルタイム追跡

Download on the App Store